Wind_Speed
13 12 13 13 12 11 11 11 10 9 9 9 8 8 8 8 9 8 8 7 7 8 8 10 12 13 15 16 17 19 20 22 23 23 24 24 23 23 23 24 25 25 25
13 13 14 12 12 11 11 12 12 11 11 11 10 9 9 10 10 10 10 9 9 10 11 12 13 14 15 16 18 20 21 23 24 24 25 24 24 23 24 25 25 25 25
12 13 12 12 12 12 12 13 12 12 12 12 11 10 10 10 11 11 11 11 11 12 13 13 13 14 15 16 19 21 22 23 23 23 22 22 22 22 22 23 23 22 22
11 12 11 12 13 12 13 13 12 12 13 12 11 11 11 11 11 12 12 13 14 14 15 15 14 14 16 18 19 21 22 21 20 19 18 18 18 19 19 19 18 19 19
10 10 11 13 13 13 13 12 12 12 12 12 12 12 13 13 13 14 14 15 16 16 16 15 15 15 16 18 19 21 21 20 17 16 15 15 15 15 15 15 16 17 17
11 11 11 13 14 14 14 12 12 13 14 14 14 15 15 15 14 15 16 18 18 18 18 17 16 16 17 17 18 18 19 18 16 14 13 13 13 13 14 14 15 16 17
11 11 12 12 14 15 15 14 12 13 15 17 18 18 18 17 16 17 18 19 19 20 19 19 18 18 17 17 16 16 17 17 16 14 13 13 13 14 15 16 17 18 19
12 12 12 12 13 15 15 15 14 13 15 17 19 20 19 18 18 18 18 19 19 20 20 20 20 20 20 19 18 17 17 18 18 17 17 16 17 17 18 19 20 21 23
13 13 13 13 14 14 15 15 15 15 15 16 17 18 19 19 19 19 19 19 20 20 20 21 22 23 23 24 24 23 22 21 21 21 22 22 22 22 22 23 24 25 25
14 14 14 14 15 15 16 16 17 17 17 17 17 18 19 19 20 21 21 22 23 23 23 24 25 26 27 28 29 29 29 28 28 28 27 27 27 27 27 28 28 29 30
14 14 15 15 16 17 18 19 20 20 20 20 20 21 21 22 23 24 26 27 29 29 29 30 30 31 32 33 34 35 35 35 35 34 34 33 33 33 33 33 34 34 35
14 14 15 15 16 18 19 20 22 23 23 23 23 24 25 26 27 28 30 31 33 34 35 35 35 36 37 38 39 39 40 40 41 40 40 39 39 39 39 40 40 40 41
15 15 15 16 17 18 20 22 23 25 26 25 26 27 28 29 30 32 34 35 37 38 38 39 40 41 42 43 43 43 44 44 45 45 45 45 45 45 45 45 46 46 46
16 16 16 17 19 20 21 22 24 25 26 27 27 28 30 32 34 36 38 39 40 41 42 43 44 45 45 46 46 46 46 46 46 47 48 49 50 51 51 51 51 51 51
18 19 20 20 21 21 22 23 24 25 27 28 29 31 33 35 37 39 40 41 42 43 43 43 44 45 45 45 46 46 46 46 46 47 49 50 52 53 54 55 55 55 55
20 22 23 23 23 23 22 23 23 25 26 28 31 33 35 38 41 41 42 42 42 41 40 40 41 42 43 44 45 45 46 46 47 48 49 50 51 52 53 54 55 56 56
24 25 25 25 24 23 22 22 23 25 27 30 33 36 38 40 41 41 40 40 40 39 38 39 39 40 41 42 43 44 45 46 47 48 50 50 51 52 53 54 55 56 56
27 27 27 25 24 23 22 23 24 27 30 32 35 37 38 39 39 38 37 36 37 37 37 37 38 39 40 41 43 44 45 46 47 48 50 51 52 53 54 55 56 56 56
29 28 27 25 23 23 23 24 27 30 32 34 35 36 36 36 36 35 34 35 35 35 36 38 39 41 42 44 46 47 48 49 51 52 53 54 56 57 57 59 60 60 59
27 26 25 25 23 23 24 26 29 32 34 35 35 35 35 34 34 34 34 35 37 38 39 42 44 45 47 49 51 51 51 52 53 54 56 58 59 60 62 63 63 64 64
25 24 24 24 25 26 27 29 32 33 35 35 35 35 35 35 35 36 37 39 41 42 44 46 49 50 52 55 57 57 57 57 58 58 60 61 62 62 64 65 66 66 66
23 23 24 26 28 29 31 33 34 34 35 35 35 36 36 37 38 40 41 43 45 47 49 51 54 56 57 59 61 63 63 61 59 60 61 62 62 63 63 64 64 65 65
22 23 26 28 31 33 34 34 34 34 35 35 36 37 38 40 42 44 46 48 50 52 54 55 57 59 60 60 62 65 67 67 66 63 63 63 64 65 65 66 66 66 66
24 26 29 31 33 33 34 33 33 34 36 37 38 40 42 44 46 48 50 52 53 55 56 57 59 61 62 63 65 67 69 72 73 73 71 71 70 70 69 69 69 68 68
29 30 31 32 32 32 32 33 35 36 38 40 42 44 45 47 49 51 52 54 56 58 59 61 63 65 67 69 71 73 75 77 80 83 82 81 81 80 79 77 74 72 69
32 32 32 31 31 32 34 36 37 39 41 43 44 46 48 49 51 53 56 59 61 63 66 68 70 73 75 77 79 81 84 86 87 90 91 90 90 88 87 85 83 79 75
Wind_Direction
260 263 266 273 276 274 271 267 256 248 243 243 247 251 250 250 253 262 276 283 293 303 311 316 317 316 314 313 310 307 304 301 297 293 292 292 293 294 297 300 304 309 314
263 267 269 271 270 266 264 264 259 249 239 236 240 247 253 255 258 263 271 282 293 299 304 308 310 311 311 311 311 309 307 305 302 297 292 289 288 289 293 297 302 307 313
264 271 273 271 267 262 261 263 258 246 237 235 239 248 256 260 264 268 272 279 285 290 296 301 305 307 310 311 311 310 309 307 306 302 296 290 287 288 292 298 303 308 314
272 278 274 269 263 260 259 262 258 245 237 236 242 251 258 262 267 272 276 279 282 287 292 296 300 304 307 310 311 312 311 310 311 308 303 297 293 293 296 301 307 312 318
277 278 274 268 261 257 257 261 259 246 239 240 248 257 263 266 270 274 276 278 281 286 290 292 294 297 302 308 311 313 312 312 315 316 313 307 304 304 306 310 313 318 323
275 279 274 267 260 257 257 259 260 250 245 247 252 260 267 273 277 278 277 278 281 285 288 286 287 290 297 306 313 319 320 319 321 324 324 321 319 318 318 318 319 322 325
279 282 279 272 263 259 259 260 262 258 252 251 253 258 265 272 277 278 278 279 282 285 285 283 281 284 292 301 310 318 324 325 325 324 324 324 322 319 317 317 318 319 320
284 286 283 278 269 263 263 266 267 267 261 256 256 259 263 268 271 273 275 278 282 285 285 283 280 282 286 293 298 304 308 312 315 315 313 311 309 308 308 310 311 312 314
284 288 286 280 275 268 267 270 272 272 270 265 262 262 264 266 269 272 275 278 282 285 286 285 283 282 284 288 290 292 293 296 298 300 300 299 299 300 301 302 304 306 307
282 286 286 281 277 273 270 270 272 271 271 271 269 267 266 268 271 274 277 280 282 283 285 285 286 286 286 287 288 288 288 289 290 292 293 294 294 295 295 296 298 300 301
279 283 285 285 280 276 272 270 269 269 269 270 272 271 271 273 276 279 281 283 283 284 284 285 287 289 289 289 288 288 287 287 288 289 289 290 290 291 291 293 294 296 298
278 283 286 287 284 278 274 271 268 267 266 268 271 274 276 278 280 282 283 285 286 286 286 286 287 288 289 290 290 289 288 287 287 287 288 288 288 288 289 290 291 293 295
278 286 289 289 287 283 277 272 268 266 267 269 272 276 279 281 283 284 285 286 286 286 286 285 286 287 288 289 290 290 289 287 286 286 286 287 287 287 288 288 290 291 293
277 287 293 293 292 289 284 277 271 268 269 272 275 278 282 284 285 286 287 287 286 286 285 284 286 287 288 290 291 291 291 291 290 288 287 287 287 287 288 288 289 290 291
279 287 292 295 296 294 289 283 276 273 273 275 278 282 285 287 288 289 289 289 288 287 287 287 287 288 289 290 291 291 292 292 291 290 289 289 288 288 289 289 289 290 290
280 286 290 294 296 294 291 285 281 278 278 280 282 285 288 289 290 290 290 291 290 289 289 289 288 288 289 289 290 290 290 290 290 290 290 289 289 288 288 288 288 288 289
282 285 288 292 293 292 289 284 282 283 284 285 287 288 289 290 290 290 290 290 289 288 288 288 288 288 289 289 289 289 289 289 289 289 289 289 289 288 288 287 287 287 287
285 286 285 287 288 288 288 287 286 288 289 290 291 291 291 291 290 290 289 288 287 288 289 290 290 290 290 290 290 290 290 290 289 288 288 288 288 287 287 287 287 287 287
284 284 282 282 283 284 287 290 293 294 295 295 295 294 293 292 291 290 289 290 291 291 292 292 292 292 292 292 291 291 292 292 291 291 291 290 289 289 288 288 288 288 287
279 278 277 277 279 281 285 290 293 295 296 296 295 294 294 293 293 292 292 293 293 293 293 293 293 293 293 292 292 292 292 292 292 292 291 291 290 290 289 289 288 288 288
271 271 271 274 278 281 285 288 291 292 293 293 292 293 293 293 293 293 293 293 293 293 293 293 293 294 294 294 294 293 293 293 293 292 291 291 290 290 290 289 288 287 287
266 267 271 275 279 282 285 288 289 289 289 290 290 291 291 291 292 292 293 293 294 295 295 296 296 296 297 297 296 295 294 293 293 293 292 292 291 290 290 289 288 287 286
267 271 275 278 281 283 285 286 287 287 287 288 289 290 291 292 293 294 295 296 297 297 298 298 298 298 298 297 297 297 297 296 294 293 292 291 290 289 288 287 287 286 286
272 276 279 282 283 284 284 284 285 286 287 289 290 291 293 294 295 296 297 298 298 298 298 298 298 298 297 297 296 296 296 296 296 294 293 292 290 289 287 286 284 283 282
277 281 284 285 285 284 283 284 285 287 289 290 292 294 295 296 297 298 299 298 298 298 298 298 298 298 298 297 297 296 296 296 295 294 293 292 291 291 289 286 284 281 278
280 284 286 286 285 284 284 285 287 290 292 294 295 297 299 300 301 301 301 301 301 300 300 300 299 299 299 298 298 297 297 296 295 294 293 292 291 290 288 287 285 281 277
Height
5861 5861 5862 5862 5861 5861 5860 5860 5861 5861 5861 5862 5862 5862 5862 5862 5862 5861 5861 5860 5860 5860 5859 5858 5857 5856 5855 5854 5852 5850 5848 5847 5845 5844 5843 5842 5841 5839 5838 5836 5835 5832 5830
5860 5860 5860 5860 5860 5859 5859 5859 5859 5859 5859 5860 5860 5860 5860 5860 5860 5860 5859 5859 5859 5858 5857 5856 5855 5854 5853 5851 5849 5847 5845 5843 5841 5839 5838 5837 5836 5835 5833 5832 5830 5828 5826
5858 5858 5858 5858 5858 5858 5858 5858 5857 5857 5857 5857 5858 5858 5858 5858 5858 5858 5858 5857 5857 5856 5855 5853 5852 5851 5850 5848 5846 5844 5842 5840 5837 5835 5833 5832 5831 5830 5829 5828 5826 5824 5822
5857 5857 5857 5857 5857 5856 5856 5856 5855 5855 5855 5855 5855 5856 5856 5855 5855 5856 5856 5855 5854 5853 5852 5851 5850 5849 5847 5845 5843 5841 5838 5836 5834 5831 5829 5828 5827 5826 5825 5824 5822 5821 5819
5855 5855 5855 5855 5855 5855 5855 5854 5853 5853 5853 5853 5853 5854 5854 5853 5853 5853 5853 5853 5852 5851 5849 5848 5847 5846 5845 5843 5841 5838 5835 5833 5831 5829 5827 5826 5824 5823 5822 5821 5819 5817 5816
5853 5853 5853 5853 5853 5853 5853 5852 5852 5851 5851 5851 5851 5851 5851 5851 5851 5851 5851 5850 5849 5848 5847 5845 5844 5843 5842 5840 5838 5835 5833 5830 5829 5827 5825 5823 5822 5821 5820 5818 5816 5814 5812
5851 5851 5851 5851 5851 5851 5851 5850 5850 5849 5849 5849 5849 5848 5849 5849 5848 5848 5848 5847 5846 5845 5843 5842 5841 5840 5839 5837 5835 5833 5831 5829 5827 5825 5823 5822 5820 5819 5817 5815 5813 5811 5809
5849 5849 5849 5848 5848 5848 5848 5848 5847 5847 5846 5846 5845 5845 5846 5845 5845 5845 5844 5843 5842 5841 5840 5839 5838 5837 5836 5834 5832 5830 5828 5826 5825 5823 5821 5819 5817 5815 5813 5811 5809 5807 5805
5847 5847 5847 5846 5846 5846 5846 5845 5845 5844 5844 5843 5842 5842 5842 5842 5842 5841 5841 5840 5839 5838 5837 5835 5834 5833 5831 5830 5828 5826 5824 5822 5821 5819 5818 5816 5813 5811 5809 5807 5804 5802 5800
5845 5845 5844 5844 5843 5843 5843 5842 5842 5842 5841 5840 5839 5839 5839 5838 5838 5838 5837 5837 5836 5834 5833 5831 5830 5828 5827 5825 5823 5821 5819 5817 5816 5814 5812 5810 5808 5805 5803 5801 5798 5796 5793
5843 5842 5842 5841 5840 5840 5839 5839 5839 5839 5838 5837 5837 5836 5835 5835 5834 5834 5833 5832 5831 5830 5828 5826 5825 5823 5822 5820 5818 5816 5814 5812 5810 5807 5805 5803 5801 5798 5796 5793 5791 5788 5786
5840 5839 5839 5838 5837 5837 5836 5836 5835 5835 5834 5834 5833 5832 5832 5831 5830 5829 5828 5827 5826 5824 5823 5821 5819 5817 5815 5813 5811 5809 5807 5805 5803 5800 5797 5795 5793 5791 5788 5785 5783 5780 5778
5837 5837 5836 5835 5834 5833 5832 5831 5831 5830 5830 5829 5828 5828 5827 5826 5825 5824 5823 5821 5820 5818 5816 5814 5812 5810 5808 5805 5803 5801 5799 5797 5795 5792 5790 5787 5785 5782 5780 5777 5774 5772 5769
5835 5834 5833 5832 5830 5829 5828 5827 5826 5826 5825 5825 5824 5823 5822 5821 5820 5818 5816 5814 5812 5810 5808 5806 5804 5802 5800 5797 5795 5793 5791 5789 5786 5784 5781 5779 5776 5773 5771 5768 5765 5762 5759
5831 5830 5830 5828 5827 5825 5824 5823 5822 5822 5821 5820 5819 5818 5817 5815 5813 5811 5809 5807 5805 5802 5800 5798 5796 5793 5791 5789 5786 5784 5781 5779 5777 5774 5772 5770 5767 5764 5761 5758 5755 5752 5749
5827 5826 5825 5824 5823 5821 5819 5818 5818 5817 5817 5815 5814 5813 5811 5808 5806 5804 5802 5799 5796 5794 5791 5789 5787 5784 5781 5779 5776 5773 5771 5768 5766 5764 5761 5759 5756 5753 5750 5747 5744 5741 5738
5823 5822 5821 5820 5818 5816 5815 5814 5813 5812 5812 5810 5808 5807 5804 5802 5799 5797 5794 5791 5788 5785 5783 5780 5777 5775 5772 5769 5766 5763 5761 5758 5756 5753 5750 5747 5744 5741 5738 5735 5732 5729 5727
5817 5816 5816 5815 5814 5812 5811 5810 5809 5808 5806 5804 5802 5800 5797 5795 5792 5790 5787 5783 5780 5777 5775 5772 5768 5766 5763 5760 5757 5754 5751 5748 5744 5741 5738 5735 5731 5728 5725 5722 5720 5717 5715
5811 5810 5810 5810 5809 5808 5806 5805 5804 5802 5800 5798 5796 5793 5790 5788 5785 5782 5779 5776 5773 5771 5767 5764 5760 5757 5754 5750 5747 5744 5741 5737 5733 5729 5726 5722 5718 5715 5712 5709 5706 5703 5700
5805 5804 5804 5804 5804 5803 5802 5800 5798 5796 5794 5791 5789 5786 5784 5781 5778 5775 5773 5769 5766 5763 5759 5755 5751 5747 5743 5739 5735 5732 5730 5726 5722 5718 5713 5709 5705 5701 5697 5694 5691 5688 5684
5800 5799 5799 5799 5798 5797 5796 5794 5792 5790 5788 5785 5782 5779 5777 5774 5771 5768 5765 5761 5757 5753 5749 5745 5740 5736 5732 5726 5721 5718 5717 5713 5709 5705 5700 5695 5691 5687 5683 5679 5675 5672 5669
5795 5794 5794 5794 5793 5792 5790 5788 5786 5783 5781 5778 5775 5772 5769 5766 5763 5759 5755 5752 5747 5743 5738 5733 5728 5723 5719 5713 5706 5701 5700 5701 5697 5691 5685 5680 5676 5671 5667 5663 5658 5655 5651
5790 5790 5790 5789 5788 5786 5784 5781 5779 5776 5773 5770 5767 5764 5761 5757 5753 5750 5746 5741 5737 5732 5727 5722 5716 5711 5706 5701 5693 5686 5680 5678 5677 5677 5672 5667 5661 5656 5652 5646 5642 5637 5633
5786 5785 5784 5783 5782 5780 5777 5774 5771 5768 5765 5762 5759 5756 5752 5748 5744 5740 5736 5731 5726 5721 5715 5710 5704 5698 5692 5687 5681 5673 5665 5658 5653 5652 5653 5649 5645 5640 5635 5630 5625 5620 5615
5780 5779 5778 5776 5774 5772 5770 5767 5764 5761 5758 5755 5751 5748 5744 5740 5735 5731 5726 5720 5715 5709 5703 5697 5690 5684 5677 5670 5664 5657 5650 5642 5633 5626 5627 5627 5622 5619 5614 5610 5605 5601 5596
5774 5772 5770 5768 5766 5764 5762 5759 5756 5753 5750 5747 5743 5739 5735 5730 5725 5719 5714 5708 5701 5695 5688 5681 5674 5667 5659 5652 5644 5636 5628 5621 5613 5602 5597 5598 5597 5597 5590 5586 5582 5578 5574